Погода в Кронштадтке

Россия / Приморский край     44°43′22″N   133°05′57″E
темп.,
°C
ветер,
м/с
пор.,
м/с
влажн.,
%
обл.,
%
осадки,
мм/ч
давл.,
гПа
погр.,
м
14 июня, пн
пн1401:00+17юз1289100 0.0 100812
04:00+17всв2492100 0.0 100760
07:00+18вюв1188100 0.0 100851
10:00+25всв22610 0.0 1008695
13:00+28ссв32490 0.0 10071574
16:00+27с43510 0.0 10061107
19:00+25зсз22700 0.1 100582
22:00+17зюз37963 0.4 1007159
15 июня, вт
вт1501:00+14зюз279897 0.0 1008173
04:00+13юз239714 0.0 100884
07:00+13зюз239299 0.0 1009159
10:00+17зюз118599 0.0 1009518
13:00+19з1279100 0.1 1008495
16:00+23зюз446483 0.1 10071034
19:00+19юз5876100 0.0 1008516
22:00+14юз4118119 0.0 1009291
16 июня, ср
ср1601:00+12ююз37843 0.0 1009162
04:00+11ююз22890 0.0 100925
07:00+13ююз12840 0.0 1010106
10:00+19юз23650 0.0 1010658
13:00+24зюз33560 0.0 10081077
16:00+25зюз33560 0.0 1007897
19:00+22зюз35730 0.0 1006367
22:00+15юз37880 0.0 1007160
17 июня, чт
чт1701:00+14юз23860 0.0 100845
04:00+12ю22910 0.0 100729
07:00+14з12880 0.0 1007102
10:00+20юз236985 0.0 1006597
13:00+25юз345499 0.0 10041018
16:00+25зюз4557100 0.0 1002637
19:00+20юз41073100 0.0 1002391
22:00+16ююз2485100 0.0 100394
18 июня, пт
пт1801:00+14зюз1291100 0.0 100325
04:00+14ююз2395100 0.0 100469
07:00+15юв3586100 0.0 1003183
10:00+18ююв3778100 0.2 1003659
13:00+18з1188100 2.1 1002116
16:00+19юз3688100 6.6 1001469
19:00+17юв2389100 1.9 100065
22:00+15юв3796100 2.7 1000158